,,,PA_Meas_PMT16A,,PR_Meas_QMR101_102,,RH_Meas_QMH101,,SR_Meas_QMS101,,TA_Meas_QMH101,,GenWind,,GenWind,
date,time,status,PA,status,PR,status,RH,status,SR,status,TA,status,DirAvg,status,SpdAvg,
2011-04-23, 00:00:05,VALID,1000.12,VALID,0,VALID,88.8546,VALID,0,VALID,24.7551,VALID,249,VALID,0.192969,
2011-04-23, 00:01:05,VALID,1000.13,VALID,0,VALID,88.8622,VALID,0,VALID,24.7551,VALID,249,VALID,0.0875,
2011-04-23, 00:02:05,VALID,1000.12,VALID,0,VALID,88.9003,VALID,0,VALID,24.7337,VALID,249,VALID,0.000390625,
2011-04-23, 00:03:05,VALID,1000.14,VALID,0,VALID,88.9919,VALID,0,VALID,24.6946,VALID,249,VALID,0.187891,
2011-04-23, 00:04:05,VALID,1000.11,VALID,0,VALID,89.114,VALID,0,VALID,24.7356,VALID,249,VALID,0.125781,
2011-04-23, 00:05:05,VALID,1000.12,VALID,0,VALID,89.1597,VALID,0,VALID,24.716,VALID,246,VALID,0.550781,
2011-04-23, 00:06:05,VALID,1000.1,VALID,0,VALID,89.1903,VALID,0,VALID,24.7356,VALID,244,VALID,0.187891,
2011-04-23, 00:07:05,VALID,1000.1,VALID,0,VALID,89.2589,VALID,0,VALID,24.7337,VALID,244,VALID,0.179688,
2011-04-23, 00:08:05,VALID,1000.02,VALID,0,VALID,89.2971,VALID,0,VALID,24.716,VALID,244,VALID,0.259766,
2011-04-23, 00:09:05,VALID,1000.06,VALID,0,VALID,89.3428,VALID,0,VALID,24.6946,VALID,244,VALID,0.376563,
2011-04-23, 00:10:05,VALID,1000.03,VALID,0,VALID,89.3886,VALID,0,VALID,24.7142,VALID,244,VALID,0.409375,
2011-04-23, 00:11:05,VALID,1000.01,VALID,0,VALID,89.4191,VALID,0,VALID,24.7142,VALID,244,VALID,0.442578,
2011-04-23, 00:12:05,VALID,1000.01,VALID,0,VALID,89.442,VALID,0,VALID,24.7356,VALID,244,VALID,0.323047,
2011-04-23, 00:13:05,VALID,999.988,VALID,0,VALID,89.5183,VALID,0,VALID,24.6946,VALID,244,VALID,0.445703,
2011-04-23, 00:14:05,VALID,999.971,VALID,0,VALID,89.5336,VALID,0,VALID,24.716,VALID,244,VALID,0.279297,
2011-04-23, 00:15:05,VALID,999.977,VALID,0,VALID,89.5641,VALID,0,VALID,24.6965,VALID,244,VALID,0.157422,
2011-04-23, 00:16:05,VALID,999.973,VALID,0,VALID,89.6404,VALID,0,VALID,24.6575,VALID,244,VALID,0.173828,
2011-04-23, 00:17:05,VALID,999.992,VALID,0,VALID,89.7091,VALID,0,VALID,24.6361,VALID,244,VALID,0.233984,
2011-04-23, 00:18:05,VALID,1000,VALID,0,VALID,89.8464,VALID,0,VALID,24.6166,VALID,244,VALID,0.251172,
2011-04-23, 00:19:05,VALID,1000.02,VALID,0,VALID,89.938,VALID,0,VALID,24.6184,VALID,244,VALID,0.489453,
2011-04-23, 00:20:05,VALID,1000.05,VALID,0,VALID,89.999,VALID,0,VALID,24.5989,VALID,244,VALID,0.478516,
2011-04-23, 00:21:05,VALID,1000.07,VALID,0,VALID,90.0677,VALID,0,VALID,24.558,VALID,244,VALID,0.339063,
2011-04-23, 00:22:05,VALID,1000.06,VALID,0,VALID,90.0753,VALID,0,VALID,24.5385,VALID,244,VALID,0.291797,
2011-04-23, 00:23:05,VALID,1000.04,VALID,0,VALID,90.1058,VALID,0,VALID,24.5599,VALID,244,VALID,0.21875,
2011-04-23, 00:24:05,VALID,1000.11,VALID,0,VALID,90.1363,VALID,0,VALID,24.5404,VALID,244,VALID,0.108984,
2011-04-23, 00:25:05,VALID,1000.13,VALID,0,VALID,90.1745,VALID,0,VALID,24.5404,VALID,244,VALID,0.170312,
2011-04-23, 00:26:05,VALID,1000.16,VALID,0,VALID,90.2584,VALID,0,VALID,24.5404,VALID,244,VALID,0.507813,
2011-04-23, 00:27:05,VALID,1000.19,VALID,0,VALID,90.3805,VALID,0,VALID,24.5209,VALID,261,VALID,0.675781,
2011-04-23, 00:28:05,VALID,1000.23,VALID,0,VALID,90.6094,VALID,0,VALID,24.5599,VALID,301,VALID,0.713281,
2011-04-23, 00:29:05,VALID,1000.27,VALID,0,VALID,90.8154,VALID,0,VALID,24.5794,VALID,301,VALID,0.708203,
2011-04-23, 00:30:05,VALID,1000.3,VALID,0,VALID,90.9374,VALID,0,VALID,24.5385,VALID,303,VALID,0.633984,
2011-04-23, 00:31:05,VALID,1000.33,VALID,0,VALID,91.029,VALID,0,VALID,24.558,VALID,303,VALID,0.486328,
2011-04-23, 00:32:05,VALID,1000.33,VALID,0,VALID,91.1129,VALID,0,VALID,24.558,VALID,303,VALID,0.382813,
2011-04-23, 00:33:05,VALID,1000.32,VALID,0,VALID,91.2121,VALID,0,VALID,24.5989,VALID,304,VALID,0.778906,
2011-04-23, 00:34:05,VALID,1000.37,VALID,0,VALID,91.2655,VALID,0,VALID,24.5989,VALID,306,VALID,1.12734,
2011-04-23, 00:35:05,VALID,1000.51,VALID,0,VALID,91.3571,VALID,0,VALID,24.6184,VALID,302,VALID,2.09414,
2011-04-23, 00:36:05,VALID,1000.47,VALID,0,VALID,91.4028,VALID,0,VALID,24.5989,VALID,304,VALID,2.33906,
2011-04-23, 00:37:05,VALID,1000.43,VALID,0,VALID,91.1282,VALID,0,VALID,24.5209,VALID,286,VALID,3.86016,
2011-04-23, 00:38:05,VALID,1000.46,VALID,0,VALID,90.4873,VALID,0,VALID,24.5599,VALID,279,VALID,2.23828,
2011-04-23, 00:39:05,VALID,1000.45,VALID,0,VALID,89.6709,VALID,0,VALID,24.5794,VALID,305,VALID,2.56094,
2011-04-23, 00:40:05,VALID,1000.39,VALID,0,VALID,88.824,VALID,0,VALID,24.5794,VALID,250,VALID,2.81953,
2011-04-23, 00:41:05,VALID,1000.39,VALID,0,VALID,87.9466,VALID,0,VALID,24.5599,VALID,276,VALID,3.15352,
2011-04-23, 00:42:05,VALID,1000.39,VALID,0,VALID,87.3515,VALID,0,VALID,24.5385,VALID,267,VALID,1.77031,
2011-04-23, 00:43:05,VALID,1000.28,VALID,0,VALID,86.4894,VALID,0,VALID,24.4995,VALID,274,VALID,3.48672,
2011-04-23, 00:44:05,VALID,1000.31,VALID,0,VALID,86.1766,VALID,0,VALID,24.5404,VALID,286,VALID,2.87539,
2011-04-23, 00:45:05,VALID,1000.33,VALID,0,VALID,86.6496,VALID,0,VALID,24.5209,VALID,234,VALID,1.29102,
2011-04-23, 00:46:05,VALID,1000.32,VALID,0,VALID,86.146,VALID,0,VALID,24.4818,VALID,279,VALID,1.80156,
2011-04-23, 00:47:05,VALID,1000.31,VALID,0,VALID,85.1847,VALID,0,VALID,24.4019,VALID,300,VALID,3.05273,
2011-04-23, 00:48:05,VALID,1000.32,VALID,0,VALID,84.4828,VALID,0,VALID,24.3647,VALID,298,VALID,3.28047,
2011-04-23, 00:49:05,VALID,1000.37,VALID,0,VALID,84.2997,VALID,0,VALID,24.2866,VALID,307,VALID,3.82344,
2011-04-23, 00:50:05,VALID,1000.32,VALID,0,VALID,84.5743,VALID,0,VALID,24.2476,VALID,288,VALID,2.83125,
2011-04-23, 00:51:05,VALID,1000.33,VALID,0,VALID,84.704,VALID,0,VALID,24.2086,VALID,278,VALID,2.4293,
2011-04-23, 00:52:05,VALID,1000.38,VALID,0,VALID,85.0932,VALID,0,VALID,24.1287,VALID,306,VALID,1.61914,
2011-04-23, 00:53:05,VALID,1000.34,VALID,0,VALID,85.4594,VALID,0,VALID,24.072,VALID,297,VALID,2.79961,
2011-04-23, 00:54:05,VALID,1000.35,VALID,0,VALID,85.9019,VALID,0,VALID,24.0134,VALID,294,VALID,2.51523,
2011-04-23, 00:55:05,VALID,1000.4,VALID,0,VALID,86.5809,VALID,0,VALID,23.9549,VALID,289,VALID,1.60938,
2011-04-23, 00:56:05,VALID,1000.41,VALID,0,VALID,87.2523,VALID,0,VALID,23.8573,VALID,276,VALID,1.53086,
2011-04-23, 00:57:05,VALID,1000.39,VALID,0,VALID,87.878,VALID,0,VALID,23.797,VALID,305,VALID,2.22148,
2011-04-23, 00:58:05,VALID,1000.4,VALID,0,VALID,88.4273,VALID,0,VALID,23.7597,VALID,292,VALID,2.79766,
2011-04-23, 00:59:05,VALID,1000.42,VALID,0,VALID,88.969,VALID,0,VALID,23.7207,VALID,258,VALID,2.37383,
2011-04-23, 01:00:05,VALID,1000.4,VALID,0,VALID,89.2818,VALID,0,VALID,23.6994,VALID,250,VALID,1.79336,
2011-04-23, 01:01:05,VALID,1000.43,VALID,0,VALID,89.5107,VALID,0,VALID,23.7402,VALID,297,VALID,1.98398,
2011-04-23, 01:02:05,VALID,1000.46,VALID,0,VALID,89.6328,VALID,0,VALID,23.7207,VALID,271,VALID,1.69609,
2011-04-23, 01:03:05,VALID,1000.49,VALID,0,VALID,89.8846,VALID,0,VALID,23.7207,VALID,270,VALID,2.04766,
2011-04-23, 01:04:05,VALID,1000.5,VALID,0.5,VALID,90.0982,VALID,0,VALID,23.7402,VALID,269,VALID,1.25195,
2011-04-23, 01:05:05,VALID,1000.5,VALID,0,VALID,90.1745,VALID,0,VALID,23.7189,VALID,290,VALID,1.22344,
2011-04-23, 01:06:05,VALID,1000.48,VALID,0,VALID,90.3271,VALID,0,VALID,23.7402,VALID,279,VALID,0.947266,
2011-04-23, 01:07:05,VALID,1000.51,VALID,0,VALID,90.4491,VALID,0,VALID,23.7207,VALID,299,VALID,1.27422,
2011-04-23, 01:08:05,VALID,1000.5,VALID,0,VALID,90.556,VALID,0,VALID,23.7207,VALID,337,VALID,1.21211,
2011-04-23, 01:09:05,VALID,1000.47,VALID,0,VALID,90.6399,VALID,0,VALID,23.7012,VALID,305,VALID,0.536719,
2011-04-23, 01:10:04,VALID,1000.46,VALID,0,VALID,90.7849,VALID,0,VALID,23.7207,VALID,312,VALID,0.824609,
2011-04-23, 01:11:04,VALID,1000.46,VALID,0,VALID,90.8154,VALID,0,VALID,23.6604,VALID,337,VALID,0.978516,
2011-04-23, 01:12:04,VALID,1000.47,VALID,0,VALID,90.8764,VALID,0,VALID,23.7012,VALID,314,VALID,0.719922,
2011-04-23, 01:13:04,VALID,1000.49,VALID,0,VALID,90.9756,VALID,0,VALID,23.7012,VALID,293,VALID,1.42422,
2011-04-23, 01:14:04,VALID,1000.44,VALID,0,VALID,91.029,VALID,0,VALID,23.7012,VALID,309,VALID,0.992188,
2011-04-23, 01:15:04,VALID,1000.41,VALID,0,VALID,91.0671,VALID,0,VALID,23.7207,VALID,320,VALID,1.4043,
2011-04-23, 01:16:04,VALID,1000.4,VALID,0,VALID,91.0748,VALID,0,VALID,23.7402,VALID,329,VALID,0.523438,
2011-04-23, 01:17:04,VALID,1000.39,VALID,0,VALID,91.0671,VALID,0,VALID,23.7402,VALID,314,VALID,1.03594,
2011-04-23, 01:18:04,VALID,1000.37,VALID,0,VALID,91.0443,VALID,0,VALID,23.7597,VALID,303,VALID,1.94258,
2011-04-23, 01:19:04,VALID,1000.38,VALID,0,VALID,91.0443,VALID,0,VALID,23.7793,VALID,308,VALID,0.573438,
2011-04-23, 01:20:04,VALID,1000.37,VALID,0,VALID,91.0443,VALID,0,VALID,23.7988,VALID,338,VALID,0.760156,
2011-04-23, 01:21:04,VALID,1000.4,VALID,0,VALID,91.029,VALID,0,VALID,23.7988,VALID,351,VALID,0.587891,
2011-04-23, 01:22:04,VALID,1000.33,VALID,0,VALID,91.0366,VALID,0,VALID,23.7988,VALID,352,VALID,0.7125,
2011-04-23, 01:23:04,VALID,1000.34,VALID,0,VALID,91.0366,VALID,0,VALID,23.7988,VALID,348,VALID,0.397266,
2011-04-23, 01:24:04,VALID,1000.33,VALID,0,VALID,91.0824,VALID,0,VALID,23.7988,VALID,350,VALID,0.524219,
2011-04-23, 01:25:04,VALID,1000.35,VALID,0,VALID,91.1434,VALID,0,VALID,23.7793,VALID,344,VALID,0.826563,
2011-04-23, 01:26:04,VALID,1000.29,VALID,0,VALID,91.1663,VALID,0,VALID,23.7793,VALID,328,VALID,0.949219,
2011-04-23, 01:27:04,VALID,1000.27,VALID,0,VALID,91.2121,VALID,0,VALID,23.7988,VALID,344,VALID,1.13633,
2011-04-23, 01:28:04,VALID,1000.24,VALID,0,VALID,91.2731,VALID,0.112286,VALID,23.7988,VALID,24,VALID,1.3207,
2011-04-23, 01:29:04,VALID,1000.24,VALID,0,VALID,91.3189,VALID,0,VALID,23.7988,VALID,10,VALID,1.58789,
2011-04-23, 01:30:04,VALID,1000.27,VALID,0,VALID,91.3647,VALID,0,VALID,23.8183,VALID,6,VALID,0.999219,
2011-04-23, 01:31:04,VALID,1000.28,VALID,0,VALID,91.4257,VALID,0,VALID,23.8378,VALID,351,VALID,0.697266,
2011-04-23, 01:32:04,VALID,1000.28,VALID,0,VALID,91.441,VALID,0,VALID,23.8183,VALID,16,VALID,1.46484,
2011-04-23, 01:33:04,VALID,1000.29,VALID,0,VALID,91.4334,VALID,0,VALID,23.8378,VALID,3,VALID,1.07891,
2011-04-23, 01:34:04,VALID,1000.28,VALID,0,VALID,91.4639,VALID,0,VALID,23.8573,VALID,350,VALID,1.25742,
2011-04-23, 01:35:04,VALID,1000.31,VALID,0,VALID,91.5097,VALID,0,VALID,23.8573,VALID,341,VALID,0.803125,
2011-04-23, 01:36:04,VALID,1000.28,VALID,0,VALID,91.5097,VALID,0,VALID,23.8183,VALID,353,VALID,0.834375,
2011-04-23, 01:37:04,VALID,1000.27,VALID,0.5,VALID,91.4868,VALID,0,VALID,23.7775,VALID,4,VALID,1.37383,
2011-04-23, 01:38:04,VALID,1000.25,VALID,0,VALID,91.4791,VALID,0,VALID,23.7579,VALID,20,VALID,0.872656,
2011-04-23, 01:39:04,VALID,1000.22,VALID,0,VALID,91.441,VALID,0,VALID,23.7597,VALID,39,VALID,0.510938,
2011-04-23, 01:40:04,VALID,1000.23,VALID,0,VALID,91.4257,VALID,0,VALID,23.7597,VALID,23,VALID,0.927734,
2011-04-23, 01:41:04,VALID,1000.18,VALID,0,VALID,91.4334,VALID,0,VALID,23.7793,VALID,26,VALID,0.989062,
2011-04-23, 01:42:04,VALID,1000.15,VALID,0,VALID,91.4563,VALID,0,VALID,23.7597,VALID,26,VALID,0.816406,
2011-04-23, 01:43:04,VALID,1000.12,VALID,0,VALID,91.4715,VALID,0,VALID,23.7597,VALID,19,VALID,0.978125,
2011-04-23, 01:44:04,VALID,1000.09,VALID,0.5,VALID,91.5478,VALID,0,VALID,23.7597,VALID,16,VALID,1.31406,
2011-04-23, 01:45:04,VALID,1000.06,VALID,0,VALID,91.5783,VALID,0,VALID,23.7402,VALID,3,VALID,1.36133,
2011-04-23, 01:46:04,VALID,1000.02,VALID,0,VALID,91.6394,VALID,0,VALID,23.7402,VALID,9,VALID,1.43359,
2011-04-23, 01:47:04,VALID,999.97,VALID,0,VALID,91.6775,VALID,0,VALID,23.7207,VALID,360,VALID,1.36094,
2011-04-23, 01:48:04,VALID,999.912,VALID,0,VALID,91.6928,VALID,0,VALID,23.6817,VALID,15,VALID,1.88594,
2011-04-23, 01:49:04,VALID,999.897,VALID,0,VALID,91.6699,VALID,0,VALID,23.6799,VALID,13,VALID,1.52148,
2011-04-23, 01:50:04,VALID,999.861,VALID,0,VALID,91.6775,VALID,0,VALID,23.6622,VALID,20,VALID,1.77383,
2011-04-23, 01:51:04,VALID,999.849,VALID,0,VALID,91.5783,VALID,0.112286,VALID,23.6427,VALID,5,VALID,1.35547,
2011-04-23, 01:52:04,VALID,999.85,VALID,0,VALID,91.4791,VALID,0,VALID,23.6232,VALID,17,VALID,1.18984,
2011-04-23, 01:53:04,VALID,999.824,VALID,0,VALID,91.4944,VALID,0,VALID,23.6409,VALID,19,VALID,1.14688,
2011-04-23, 01:54:04,VALID,999.854,VALID,0,VALID,91.5631,VALID,0,VALID,23.6427,VALID,27,VALID,1.68711,
2011-04-23, 01:55:04,VALID,999.869,VALID,0,VALID,91.6088,VALID,0,VALID,23.6214,VALID,22,VALID,1.70195,
2011-04-23, 01:56:04,VALID,999.817,VALID,0,VALID,91.6012,VALID,0,VALID,23.6036,VALID,28,VALID,2.01445,
2011-04-23, 01:57:04,VALID,999.777,VALID,0.5,VALID,91.6241,VALID,0,VALID,23.5646,VALID,36,VALID,1.54219,
2011-04-23, 01:58:04,VALID,999.784,VALID,0,VALID,91.6623,VALID,0,VALID,23.5256,VALID,44,VALID,1.66367,
2011-04-23, 01:59:04,VALID,999.772,VALID,0,VALID,91.6546,VALID,0,VALID,23.4866,VALID,49,VALID,1.84961,
2011-04-23, 02:00:04,VALID,999.764,VALID,0,VALID,91.6546,VALID,0,VALID,23.4475,VALID,40,VALID,1.55625,
2011-04-23, 02:01:04,VALID,999.761,VALID,0,VALID,91.6851,VALID,0,VALID,23.4067,VALID,51,VALID,1.88984,
2011-04-23, 02:02:04,VALID,999.745,VALID,0,VALID,91.6317,VALID,0,VALID,23.3695,VALID,48,VALID,1.7957,
2011-04-23, 02:03:04,VALID,999.734,VALID,0,VALID,91.5402,VALID,0,VALID,23.3305,VALID,62,VALID,1.60898,
2011-04-23, 02:04:04,VALID,999.689,VALID,0,VALID,91.4639,VALID,0,VALID,23.311,VALID,63,VALID,1.33164,
2011-04-23, 02:05:04,VALID,999.679,VALID,0,VALID,91.4028,VALID,0,VALID,23.2915,VALID,60,VALID,1.03477,
2011-04-23, 02:06:04,VALID,999.664,VALID,0,VALID,91.3876,VALID,0,VALID,23.311,VALID,59,VALID,0.791797,
2011-04-23, 02:07:04,VALID,999.603,VALID,0,VALID,91.3876,VALID,0,VALID,23.2915,VALID,57,VALID,0.815234,
2011-04-23, 02:08:04,VALID,999.587,VALID,0,VALID,91.3723,VALID,0,VALID,23.2915,VALID,57,VALID,0.696484,
2011-04-23, 02:09:04,VALID,999.551,VALID,0,VALID,91.3418,VALID,0,VALID,23.2915,VALID,33,VALID,0.9375,
2011-04-23, 02:10:04,VALID,999.529,VALID,0,VALID,91.2808,VALID,0,VALID,23.2507,VALID,25,VALID,0.703516,
2011-04-23, 02:11:04,VALID,999.541,VALID,0,VALID,91.2121,VALID,0,VALID,23.2524,VALID,25,VALID,0.621094,
2011-04-23, 02:12:04,VALID,999.53,VALID,0,VALID,91.1358,VALID,0,VALID,23.2524,VALID,25,VALID,0.252344,
2011-04-23, 02:13:04,VALID,999.529,VALID,0,VALID,91.0671,VALID,0,VALID,23.2329,VALID,25,VALID,0.0359375,
2011-04-23, 02:14:04,VALID,999.518,VALID,0,VALID,91.0061,VALID,0,VALID,23.2312,VALID,25,VALID,0,
2011-04-23, 02:15:04,VALID,999.517,VALID,0,VALID,90.9756,VALID,0,VALID,23.2117,VALID,25,VALID,0,
2011-04-23, 02:16:04,VALID,999.482,VALID,0,VALID,90.9985,VALID,0.112286,VALID,23.2117,VALID,25,VALID,0.150391,
2011-04-23, 02:17:04,VALID,999.46,VALID,0,VALID,91.0443,VALID,0,VALID,23.2524,VALID,25,VALID,0,
2011-04-23, 02:18:04,VALID,999.434,VALID,0,VALID,91.1358,VALID,0,VALID,23.2329,VALID,25,VALID,0.0390625,
2011-04-23, 02:19:04,VALID,999.462,VALID,0,VALID,91.1587,VALID,0,VALID,23.2329,VALID,25,VALID,0.259375,
2011-04-23, 02:20:04,VALID,999.465,VALID,0,VALID,91.2274,VALID,0,VALID,23.2329,VALID,25,VALID,0.195313,
2011-04-23, 02:21:04,VALID,999.49,VALID,0,VALID,91.3494,VALID,0,VALID,23.2524,VALID,26,VALID,0.474609,
2011-04-23, 02:22:04,VALID,999.521,VALID,0,VALID,91.502,VALID,0,VALID,23.2702,VALID,75,VALID,0.576563,
2011-04-23, 02:23:04,VALID,999.481,VALID,0,VALID,91.6088,VALID,0,VALID,23.311,VALID,105,VALID,1.0168,
2011-04-23, 02:24:04,VALID,999.508,VALID,0,VALID,91.6699,VALID,0,VALID,23.311,VALID,105,VALID,0.987891,
2011-04-23, 02:25:04,VALID,999.495,VALID,0,VALID,91.7309,VALID,0,VALID,23.3287,VALID,105,VALID,0.682813,
2011-04-23, 02:26:04,VALID,999.478,VALID,0,VALID,91.7157,VALID,0,VALID,23.35,VALID,100,VALID,0.825,
2011-04-23, 02:27:04,VALID,999.438,VALID,0,VALID,91.7385,VALID,0,VALID,23.3482,VALID,96,VALID,0.723828,
2011-04-23, 02:28:04,VALID,999.464,VALID,0,VALID,91.7691,VALID,0,VALID,23.3872,VALID,82,VALID,0.860937,
2011-04-23, 02:29:04,VALID,999.421,VALID,0,VALID,91.8148,VALID,0,VALID,23.4085,VALID,73,VALID,0.874219,
2011-04-23, 02:30:04,VALID,999.415,VALID,0,VALID,91.8377,VALID,0,VALID,23.4085,VALID,72,VALID,0.850391,
2011-04-23, 02:31:04,VALID,999.421,VALID,0,VALID,91.8606,VALID,0,VALID,23.428,VALID,64,VALID,0.949609,
2011-04-23, 02:32:04,VALID,999.391,VALID,0,VALID,91.8988,VALID,0,VALID,23.4493,VALID,50,VALID,1.03555,
2011-04-23, 02:33:04,VALID,999.398,VALID,0,VALID,91.8988,VALID,0,VALID,23.4298,VALID,49,VALID,1.03828,
2011-04-23, 02:34:04,VALID,999.401,VALID,0,VALID,91.8835,VALID,0,VALID,23.428,VALID,49,VALID,0.922266,
2011-04-23, 02:35:04,VALID,999.376,VALID,0,VALID,91.8988,VALID,0,VALID,23.4298,VALID,49,VALID,0.898828,
2011-04-23, 02:36:04,VALID,999.364,VALID,0,VALID,91.9064,VALID,0,VALID,23.4298,VALID,50,VALID,0.709766,
2011-04-23, 02:37:04,VALID,999.349,VALID,0,VALID,91.8835,VALID,0,VALID,23.4298,VALID,79,VALID,0.925781,
2011-04-23, 02:38:04,VALID,999.302,VALID,0,VALID,91.8454,VALID,0,VALID,23.4103,VALID,87,VALID,1.05977,
2011-04-23, 02:39:04,VALID,999.291,VALID,0,VALID,91.8148,VALID,0,VALID,23.4103,VALID,87,VALID,0.811328,
2011-04-23, 02:40:04,VALID,999.328,VALID,0,VALID,91.8301,VALID,0,VALID,23.4085,VALID,107,VALID,1.0082,
2011-04-23, 02:41:04,VALID,999.292,VALID,0,VALID,91.7691,VALID,0,VALID,23.4103,VALID,107,VALID,0.892187,
2011-04-23, 02:42:04,VALID,999.289,VALID,0,VALID,91.7538,VALID,0,VALID,23.4103,VALID,107,VALID,0.604688,
2011-04-23, 02:43:04,VALID,999.26,VALID,0,VALID,91.708,VALID,0,VALID,23.389,VALID,107,VALID,1.03711,
2011-04-23, 02:44:04,VALID,999.256,VALID,0,VALID,91.6012,VALID,0,VALID,23.389,VALID,107,VALID,0.855078,
2011-04-23, 02:45:04,VALID,999.221,VALID,0,VALID,91.6012,VALID,0,VALID,23.4067,VALID,107,VALID,0.60625,
2011-04-23, 02:46:04,VALID,999.22,VALID,0,VALID,91.4944,VALID,0,VALID,23.4067,VALID,105,VALID,1.01328,
2011-04-23, 02:47:04,VALID,999.219,VALID,0,VALID,91.4181,VALID,0,VALID,23.428,VALID,106,VALID,0.928125,
2011-04-23, 02:48:04,VALID,999.195,VALID,0,VALID,91.3494,VALID,0,VALID,23.4067,VALID,109,VALID,1.18594,
2011-04-23, 02:49:04,VALID,999.191,VALID,0,VALID,91.3952,VALID,0,VALID,23.4671,VALID,109,VALID,0.923828,
2011-04-23, 02:50:04,VALID,999.157,VALID,0,VALID,91.4563,VALID,0,VALID,23.4848,VALID,109,VALID,0.745703,
2011-04-23, 02:51:04,VALID,999.154,VALID,0,VALID,91.5402,VALID,0,VALID,23.5061,VALID,109,VALID,0.719141,
2011-04-23, 02:52:04,VALID,999.161,VALID,0,VALID,91.6088,VALID,0,VALID,23.5256,VALID,109,VALID,0.558594,
2011-04-23, 02:53:04,VALID,999.151,VALID,0,VALID,91.6699,VALID,0,VALID,23.5256,VALID,106,VALID,0.867578,
2011-04-23, 02:54:04,VALID,999.13,VALID,0,VALID,91.7004,VALID,0,VALID,23.5061,VALID,106,VALID,0.737109,
2011-04-23, 02:55:04,VALID,999.139,VALID,0,VALID,91.7385,VALID,0,VALID,23.5256,VALID,105,VALID,0.792188,
2011-04-23, 02:56:04,VALID,999.099,VALID,0,VALID,91.8148,VALID,0,VALID,23.5256,VALID,99,VALID,1.16133,
2011-04-23, 02:57:04,VALID,999.094,VALID,0,VALID,91.8454,VALID,0,VALID,23.5451,VALID,99,VALID,0.958203,
2011-04-23, 02:58:04,VALID,999.112,VALID,0,VALID,91.8606,VALID,0,VALID,23.5646,VALID,87,VALID,0.946484,
2011-04-23, 02:59:04,VALID,999.135,VALID,0,VALID,91.8835,VALID,0,VALID,23.5646,VALID,75,VALID,0.721875,
2011-04-23, 03:00:04,VALID,999.138,VALID,0,VALID,91.8988,VALID,0,VALID,23.5646,VALID,49,VALID,0.547656,
2011-04-23, 03:01:04,VALID,999.151,VALID,0,VALID,91.8988,VALID,0,VALID,23.5433,VALID,102,VALID,0.869141,
2011-04-23, 03:02:04,VALID,999.159,VALID,0,VALID,91.853,VALID,0,VALID,23.5646,VALID,50,VALID,0.568359,
2011-04-23, 03:03:04,VALID,999.162,VALID,0,VALID,91.853,VALID,0,VALID,23.5646,VALID,61,VALID,0.876172,
2011-04-23, 03:04:04,VALID,999.184,VALID,0,VALID,91.7767,VALID,0,VALID,23.5646,VALID,76,VALID,1.13086,
2011-04-23, 03:05:04,VALID,999.157,VALID,0,VALID,91.7385,VALID,0,VALID,23.5646,VALID,84,VALID,1.27305,
2011-04-23, 03:06:04,VALID,999.157,VALID,0,VALID,91.6775,VALID,0,VALID,23.5841,VALID,84,VALID,1.21563,
2011-04-23, 03:07:04,VALID,999.16,VALID,0,VALID,91.6317,VALID,0,VALID,23.5841,VALID,84,VALID,1.06953,
2011-04-23, 03:08:04,VALID,999.115,VALID,0,VALID,91.6394,VALID,0,VALID,23.6036,VALID,92,VALID,0.935938,
2011-04-23, 03:09:04,VALID,999.144,VALID,0,VALID,91.6012,VALID,0,VALID,23.6036,VALID,94,VALID,0.735156,
2011-04-23, 03:10:04,VALID,999.174,VALID,0,VALID,91.5707,VALID,0.112286,VALID,23.5823,VALID,93,VALID,1.00664,
2011-04-23, 03:11:04,VALID,999.11,VALID,0,VALID,91.5783,VALID,0,VALID,23.6036,VALID,105,VALID,0.841016,
2011-04-23, 03:12:04,VALID,999.141,VALID,0,VALID,91.5936,VALID,0,VALID,23.6036,VALID,125,VALID,0.817187,
2011-04-23, 03:13:04,VALID,999.104,VALID,0,VALID,91.5554,VALID,0,VALID,23.5823,VALID,129,VALID,0.778516,
2011-04-23, 03:14:04,VALID,999.076,VALID,0,VALID,91.5478,VALID,0,VALID,23.6036,VALID,140,VALID,0.490625,
2011-04-23, 03:15:04,VALID,999.08,VALID,0,VALID,91.5554,VALID,0,VALID,23.6036,VALID,158,VALID,0.642578,
2011-04-23, 03:16:04,VALID,999.073,VALID,0,VALID,91.5783,VALID,0,VALID,23.6036,VALID,161,VALID,0.678906,
2011-04-23, 03:17:04,VALID,999.029,VALID,0,VALID,91.5783,VALID,0,VALID,23.6036,VALID,161,VALID,0.443359,
2011-04-23, 03:18:04,VALID,999.019,VALID,0,VALID,91.6012,VALID,0,VALID,23.6232,VALID,161,VALID,0.54375,
2011-04-23, 03:19:04,VALID,999.019,VALID,0,VALID,91.5936,VALID,0,VALID,23.6232,VALID,161,VALID,0.466016,
2011-04-23, 03:20:04,VALID,999.01,VALID,0,VALID,91.5936,VALID,0,VALID,23.6214,VALID,161,VALID,0.441406,
2011-04-23, 03:21:04,VALID,999.017,VALID,0,VALID,91.6012,VALID,0,VALID,23.6232,VALID,161,VALID,0.670313,
2011-04-23, 03:22:04,VALID,999.031,VALID,0,VALID,91.5783,VALID,0,VALID,23.6214,VALID,156,VALID,0.795313,
2011-04-23, 03:23:04,VALID,999.017,VALID,0,VALID,91.5707,VALID,0,VALID,23.6409,VALID,151,VALID,0.679688,
2011-04-23, 03:24:04,VALID,999.002,VALID,0,VALID,91.5707,VALID,0,VALID,23.6622,VALID,151,VALID,0.637891,
2011-04-23, 03:25:04,VALID,999.039,VALID,0,VALID,91.5783,VALID,0,VALID,23.6817,VALID,151,VALID,0.578125,
2011-04-23, 03:26:04,VALID,999.017,VALID,0,VALID,91.586,VALID,0,VALID,23.6817,VALID,151,VALID,0.728906,
2011-04-23, 03:27:04,VALID,999.006,VALID,0,VALID,91.6088,VALID,0,VALID,23.6799,VALID,146,VALID,0.816016,
2011-04-23, 03:28:04,VALID,999.033,VALID,0,VALID,91.6012,VALID,0,VALID,23.7012,VALID,142,VALID,0.876172,
2011-04-23, 03:29:04,VALID,999.025,VALID,0,VALID,91.6165,VALID,0,VALID,23.7207,VALID,136,VALID,0.827344,
2011-04-23, 03:30:04,VALID,999.005,VALID,0,VALID,91.6088,VALID,0,VALID,23.7402,VALID,139,VALID,0.979688,
2011-04-23, 03:31:04,VALID,999.059,VALID,0,VALID,91.5783,VALID,0,VALID,23.7207,VALID,131,VALID,1.36875,
2011-04-23, 03:32:04,VALID,999.065,VALID,0,VALID,91.5631,VALID,0,VALID,23.7384,VALID,133,VALID,0.957031,
2011-04-23, 03:33:04,VALID,999.086,VALID,0,VALID,91.5631,VALID,0,VALID,23.7793,VALID,130,VALID,0.917188,
2011-04-23, 03:34:04,VALID,999.095,VALID,0,VALID,91.5936,VALID,0,VALID,23.7793,VALID,116,VALID,0.817187,
2011-04-23, 03:35:04,VALID,999.1,VALID,0,VALID,91.6165,VALID,0,VALID,23.7793,VALID,117,VALID,0.949609,
2011-04-23, 03:36:04,VALID,999.107,VALID,0,VALID,91.6165,VALID,0,VALID,23.7793,VALID,111,VALID,1.31758,
2011-04-23, 03:37:04,VALID,999.134,VALID,0,VALID,91.6241,VALID,0,VALID,23.7793,VALID,112,VALID,1.01719,
2011-04-23, 03:38:04,VALID,999.144,VALID,0,VALID,91.6241,VALID,0,VALID,23.7988,VALID,100,VALID,0.8625,
2011-04-23, 03:39:04,VALID,999.16,VALID,0,VALID,91.6012,VALID,0,VALID,23.7793,VALID,99,VALID,1.16094,
2011-04-23, 03:40:04,VALID,999.189,VALID,0,VALID,91.5707,VALID,0,VALID,23.7988,VALID,104,VALID,0.948828,
2011-04-23, 03:41:04,VALID,999.189,VALID,0,VALID,91.5783,VALID,0,VALID,23.7988,VALID,104,VALID,0.847656,
2011-04-23, 03:42:04,VALID,999.219,VALID,0,VALID,91.6088,VALID,0,VALID,23.8183,VALID,104,VALID,0.680859,
2011-04-23, 03:43:04,VALID,999.209,VALID,0,VALID,91.6317,VALID,0,VALID,23.8378,VALID,104,VALID,0.573828,
2011-04-23, 03:44:04,VALID,999.176,VALID,0,VALID,91.708,VALID,0,VALID,23.797,VALID,104,VALID,0.263672,
2011-04-23, 03:45:04,VALID,999.196,VALID,0,VALID,91.6928,VALID,0,VALID,23.7988,VALID,104,VALID,0.502734,